| time (UTC) | temp C | wind direction | speed KPH | gust KPH | rain 1hr cm | rain 24hr cm | rain mn cm | humidity % | barometer mb |
| 20260505180052 | 27 | 346 | 4.8 | 17.7 | 0.00 | 0.00 | 0.00 | 42 | 1016.0 |
| 20260505174551 | 27 | 40 | 6.4 | 14.5 | 0.00 | 0.00 | 0.00 | 43 | 1015.9 |
| 20260505173052 | 27 | 33 | 4.8 | 19.3 | 0.00 | 0.00 | 0.00 | 44 | 1015.9 |
| 20260505171551 | 27 | 337 | 4.8 | 24.1 | 0.00 | 0.00 | 0.00 | 45 | 1016.3 |
| 20260505170055 | 27 | 79 | 3.2 | 12.9 | 0.00 | 0.00 | 0.00 | 45 | 1016.5 |
| 20260505164600 | 26 | 62 | 6.4 | 16.1 | 0.00 | 0.00 | 0.00 | 47 | 1016.5 |
| 20260505163052 | 26 | 22 | 3.2 | 12.9 | 0.00 | 0.00 | 0.00 | 49 | 1016.5 |
| 20260505161558 | 26 | 280 | 4.8 | 19.3 | 0.00 | 0.00 | 0.00 | 48 | 1016.7 |
| 20260505153108 | 25 | 352 | 1.6 | 16.1 | 0.00 | 0.00 | 0.00 | 52 | 1016.8 |
| 20260505151556 | 25 | 35 | 1.6 | 14.5 | 0.00 | 0.00 | 0.00 | 52 | 1016.9 |
| 20260505130110 | 19 | 33 | 3.2 | 11.3 | 0.00 | 0.00 | 0.00 | 67 | 1017.5 |
| 20260505124614 | 18 | 103 | 3.2 | 17.7 | 0.00 | 0.00 | 0.00 | 68 | 1017.4 |
| 20260505123118 | 17 | 39 | 1.6 | 16.1 | 0.00 | 0.00 | 0.00 | 71 | 1017.4 |
| 20260505121556 | 16 | 30 | 3.2 | 12.9 | 0.00 | 0.00 | 0.00 | 72 | 1017.3 |
| 20260505120107 | 16 | 27 | 1.6 | 8.0 | 0.00 | 0.00 | 0.00 | 74 | 1017.2 |
| 20260505114559 | 16 | 356 | 1.6 | 9.7 | 0.00 | 0.00 | 0.00 | 75 | 1017.2 |
| 20260505113114 | 15 | 87 | 1.6 | 9.7 | 0.00 | 0.00 | 0.00 | 75 | 1017.3 |
| 20260505111601 | 15 | 6 | 1.6 | 12.9 | 0.00 | 0.00 | 0.00 | 76 | 1017.3 |
| 20260505101557 | 15 | 91 | 0.0 | 9.7 | 0.00 | 0.00 | 0.00 | 76 | 1016.5 |
| 20260505100056 | 15 | 41 | 1.6 | 11.3 | 0.00 | 0.00 | 0.00 | 76 | 1016.2 |
| 20260505094553 | 15 | 58 | 3.2 | 11.3 | 0.00 | 0.00 | 0.00 | 75 | 1016.1 |
| 20260505093104 | 15 | 343 | 1.6 | 8.0 | 0.00 | 0.00 | 0.00 | 75 | 1016.0 |
| 20260505091554 | 15 | 18 | 0.0 | 9.7 | 0.00 | 0.00 | 0.00 | 74 | 1016.0 |
| 20260505090055 | 15 | 59 | 0.0 | 11.3 | 0.00 | 0.00 | 0.00 | 73 | 1016.0 |
| 20260505084555 | 16 | 0 | 0.0 | 9.7 | 0.00 | 0.00 | 0.00 | 73 | 1015.9 |
| 20260505083055 | 16 | 5 | 0.0 | 9.7 | 0.00 | 0.00 | 0.00 | 73 | 1015.8 |
| 20260505081553 | 16 | 0 | 1.6 | 11.3 | 0.00 | 0.00 | 0.00 | 72 | 1015.6 |
| 20260505080111 | 16 | 18 | 0.0 | 11.3 | 0.00 | 0.00 | 0.00 | 72 | 1015.7 |
| 20260505074551 | 16 | 74 | 0.0 | 8.0 | 0.00 | 0.00 | 0.00 | 71 | 1015.6 |
| 20260505073100 | 16 | 58 | 1.6 | 8.0 | 0.00 | 0.00 | 0.00 | 71 | 1015.5 |
| 20260505071553 | 16 | 0 | 1.6 | 6.4 | 0.00 | 0.00 | 0.00 | 70 | 1015.5 |
| 20260505070052 | 16 | 91 | 0.0 | 12.9 | 0.00 | 0.00 | 0.00 | 69 | 1015.3 |
| 20260505064558 | 17 | 99 | 1.6 | 11.3 | 0.00 | 0.00 | 0.00 | 69 | 1015.3 |
| 20260505063101 | 17 | 77 | 1.6 | 14.5 | 0.00 | 0.00 | 0.00 | 68 | 1015.4 |
| 20260505061557 | 17 | 79 | 1.6 | 16.1 | 0.00 | 0.00 | 0.00 | 67 | 1015.5 |
| 20260505060058 | 17 | 31 | 3.2 | 14.5 | 0.00 | 0.00 | 0.00 | 67 | 1015.5 |
| 20260505054554 | 17 | 351 | 3.2 | 12.9 | 0.00 | 0.00 | 0.00 | 67 | 1015.7 |
| 20260505053113 | 17 | 34 | 1.6 | 17.7 | 0.00 | 0.00 | 0.00 | 67 | 1015.8 |
| 20260505051552 | 17 | 355 | 1.6 | 11.3 | 0.00 | 0.00 | 0.00 | 67 | 1015.6 |
| 20260505050110 | 17 | 0 | 1.6 | 12.9 | 0.00 | 0.00 | 0.00 | 67 | 1015.8 |
| 20260505041558 | 18 | 58 | 1.6 | 12.9 | 0.00 | 0.00 | 0.00 | 67 | 1015.7 |
| 20260505040054 | 18 | 43 | 1.6 | 12.9 | 0.00 | 0.00 | 0.00 | 66 | 1015.7 |
| 20260505034614 | 18 | 37 | 3.2 | 12.9 | 0.00 | 0.00 | 0.00 | 66 | 1015.6 |
| 20260505033055 | 18 | 6 | 1.6 | 14.5 | 0.00 | 0.00 | 0.00 | 66 | 1015.5 |
| 20260505031555 | 18 | 97 | 3.2 | 14.5 | 0.00 | 0.00 | 0.00 | 66 | 1015.5 |
| 20260505030053 | 18 | 46 | 3.2 | 12.9 | 0.00 | 0.00 | 0.00 | 66 | 1015.4 |
| 20260505024549 | 18 | 19 | 1.6 | 14.5 | 0.00 | 0.00 | 0.00 | 67 | 1015.6 |
| 20260505023058 | 18 | 23 | 3.2 | 12.9 | 0.00 | 0.00 | 0.00 | 67 | 1015.5 |
| 20260505021554 | 18 | 319 | 1.6 | 4.8 | 0.00 | 0.00 | 0.00 | 67 | 1015.3 |
| 20260505020057 | 19 | 41 | 1.6 | 9.7 | 0.00 | 0.00 | 0.00 | 67 | 1015.2 |
| 20260505014553 | 19 | 141 | 3.2 | 14.5 | 0.00 | 0.00 | 0.00 | 67 | 1015.3 |
| 20260505013101 | 19 | 255 | 1.6 | 9.7 | 0.00 | 0.00 | 0.00 | 66 | 1015.0 |
| 20260505011607 | 20 | 16 | 3.2 | 9.7 | 0.00 | 0.00 | 0.00 | 66 | 1015.1 |
| 20260505010053 | 20 | 82 | 1.6 | 8.0 | 0.00 | 0.00 | 0.00 | 65 | 1014.7 |
| 20260505004605 | 20 | 3 | 1.6 | 8.0 | 0.00 | 0.00 | 0.00 | 64 | 1014.5 |
| 20260505003057 | 20 | 0 | 0.0 | 8.0 | 0.00 | 0.00 | 0.00 | 63 | 1014.4 |
| 20260505001617 | 21 | 61 | 1.6 | 9.7 | 0.00 | 0.00 | 0.00 | 62 | 1014.2 |
| 20260505000105 | 21 | 45 | 1.6 | 8.0 | 0.00 | 0.00 | 0.00 | 60 | 1014.1 |
| 20260504234557 | 22 | 37 | 3.2 | 20.9 | 0.00 | 0.00 | 0.00 | 57 | 1013.9 |
| 20260504233111 | 23 | 331 | 1.6 | 12.9 | 0.00 | 0.00 | 0.00 | 51 | 1013.6 |
| 20260504231555 | 23 | 350 | 1.6 | 9.7 | 0.00 | 0.00 | 0.00 | 41 | 1013.4 |
| 20260504230053 | 24 | 6 | 1.6 | 14.5 | 0.00 | 0.00 | 0.00 | 41 | 1013.3 |
| 20260504224554 | 25 | 14 | 1.6 | 17.7 | 0.00 | 0.00 | 0.00 | 40 | 1013.4 |
| 20260504223054 | 25 | 93 | 3.2 | 9.7 | 0.00 | 0.00 | 0.00 | 38 | 1013.4 |
| 20260504221552 | 25 | 50 | 3.2 | 20.9 | 0.00 | 0.00 | 0.00 | 38 | 1013.4 |
| 20260504220054 | 26 | 41 | 4.8 | 16.1 | 0.00 | 0.00 | 0.00 | 37 | 1013.4 |
| 20260504214605 | 26 | 19 | 3.2 | 12.9 | 0.00 | 0.00 | 0.00 | 38 | 1013.3 |
| 20260504213054 | 26 | 34 | 3.2 | 14.5 | 0.00 | 0.00 | 0.00 | 38 | 1013.5 |
| 20260504211552 | 26 | 18 | 3.2 | 25.7 | 0.00 | 0.00 | 0.00 | 37 | 1013.4 |
| 20260504210100 | 26 | 60 | 3.2 | 20.9 | 0.00 | 0.00 | 0.00 | 37 | 1013.4 |
| 20260504204601 | 26 | 46 | 4.8 | 16.1 | 0.00 | 0.00 | 0.00 | 36 | 1013.6 |
| 20260504203100 | 26 | 106 | 6.4 | 22.5 | 0.00 | 0.00 | 0.00 | 36 | 1013.6 |
| 20260504201556 | 26 | 110 | 1.6 | 14.5 | 0.00 | 0.00 | 0.00 | 37 | 1013.6 |
| 20260504194603 | 26 | 43 | 3.2 | 25.7 | 0.00 | 0.00 | 0.00 | 38 | 1013.8 |
| 20260504193056 | 26 | 56 | 3.2 | 17.7 | 0.00 | 0.00 | 0.00 | 38 | 1014.0 |
| 20260504191607 | 26 | 351 | 3.2 | 12.9 | 0.00 | 0.00 | 0.00 | 38 | 1014.2 |
| 20260504190052 | 25 | 359 | 1.6 | 14.5 | 0.00 | 0.00 | 0.00 | 40 | 1014.4 |
| 20260504184555 | 25 | 89 | 3.2 | 11.3 | 0.00 | 0.00 | 0.00 | 40 | 1014.6 |
| 20260504183053 | 25 | 80 | 3.2 | 24.1 | 0.00 | 0.00 | 0.00 | 40 | 1014.7 |
| 20260504181558 | 24 | 99 | 3.2 | 12.9 | 0.00 | 0.00 | 0.00 | 42 | 1015.0 |